Location: Beaver Brook Trail
(44.0290°N, 71.8137°W)
Time: 03:28:03
(UTC+00:00)

Vanguard 1 Rocket - Visible Passes

Search period start: 17 March 2026 00:00
Search period end: 27 March 2026 00:00
Orbit: 653 x 4214 km, 34.3° (Epoch: 16 March)

Date Brightness Start Highest point End Pass type
(mag) Time Alt. Az. Time Alt. Az. Time Alt. Az.
18 Mar 9.7 09:23:50 10° SSW 09:27:56 15° SSE 09:31:11 10° SE visible
19 Mar 10.1 08:13:01 10° S 08:15:29 11° SSE 08:17:47 10° SE visible
20 Mar 9.4 09:22:29 10° SSW 09:28:25 20° SSE 09:32:37 10° ESE visible
21 Mar 9.9 08:13:33 15° S 08:15:57 17° SSE 08:20:21 10° ESE visible
22 Mar 10.3 07:05:09 12° SE 07:05:09 12° SE 07:06:57 10° SE visible
22 Mar 9.1 09:22:18 12° SW 09:28:52 26° S 09:33:39 10° ESE visible
23 Mar 9.6 08:13:51 21° S 08:16:24 23° SSE 08:21:49 10° ESE visible
24 Mar 10.1 07:05:22 18° SE 07:05:22 18° SE 07:09:21 10° ESE visible
24 Mar 9.0 09:22:31 14° SW 09:29:19 32° S 09:34:30 10° ESE visible
25 Mar 9.4 08:13:58 25° SSW 08:16:50 29° SSE 08:22:52 10° ESE visible
26 Mar 9.9 07:05:23 24° SSE 07:05:23 24° SSE 07:10:50 10° ESE visible
26 Mar 8.8 09:22:32 15° SW 09:29:44 37° S 09:35:15 10° ESE visible
